Location: Lucerne Valley
(34.4439°N, 116.9669°E)
Time: 06:04:20
(UTC-07:00)

Vanguard 1 Rocket - All Passes

Search period start: 17 October 2017 00:00
Search period end: 27 October 2017 00:00
Orbit: 655 x 4222 km, 34.3° (Epoch: 16 October)

Date Brightness Start Highest point End Pass type
(mag) Time Alt. Az. Time Alt. Az. Time Alt. Az.
17 Oct - 01:01:37 10° SW 01:04:11 11° SSW 01:07:11 10° S daylight
17 Oct - 14:04:52 10° SSW 14:11:38 19° SSE 14:16:22 10° ESE visible
17 Oct - 16:30:31 10° SW 16:37:30 50° SSE 16:42:04 10° E daylight
17 Oct - 18:57:26 10° W 19:02:17 89° SSE 19:06:48 10° E daylight
17 Oct - 21:22:36 10° W 21:26:57 49° SSW 21:32:59 10° ESE daylight
17 Oct - 23:48:28 10° WSW 23:52:28 17° SSW 23:57:53 10° SSE daylight
18 Oct - 12:54:51 10° S 12:59:42 13° SSE 13:03:35 10° SE visible
18 Oct - 15:18:15 10° SW 15:26:30 36° SSE 15:31:34 10° E daylight
18 Oct - 17:45:45 10° WSW 17:51:38 81° S 17:56:02 10° E daylight
18 Oct - 20:11:55 10° W 20:16:19 70° SSW 20:21:23 10° ESE daylight
18 Oct - 22:37:04 10° WSW 22:41:12 24° SSW 22:47:01 10° SSE daylight
19 Oct - 14:06:00 10° SSW 14:15:06 27° SSE 14:20:46 10° E visible
19 Oct - 16:33:26 10° WSW 16:40:53 64° SSE 16:45:35 10° E daylight
19 Oct - 19:00:49 10° W 19:05:44 87° S 19:10:13 10° E daylight
19 Oct - 21:26:12 10° W 21:30:19 36° SSW 21:35:48 10° SE daylight
19 Oct - 23:55:16 10° SSW 23:55:58 10° SSW 23:56:41 10° SSW daylight
20 Oct - 12:54:17 10° SSW 13:03:13 20° SSE 13:09:15 10° ESE visible
20 Oct - 15:20:40 10° SW 15:29:54 48° SSE 15:35:14 10° E daylight
20 Oct - 17:49:03 10° W 17:55:04 88° S 17:59:29 10° E daylight
20 Oct - 20:15:22 10° W 20:19:42 55° SSW 20:24:35 10° ESE daylight
20 Oct - 22:41:26 10° WSW 22:44:37 16° SSW 22:48:38 10° SSE daylight
21 Oct - 11:44:06 10° S 11:50:47 14° SSE 11:56:00 10° SE visible
21 Oct - 14:07:43 10° SW 14:18:32 37° SSE 14:24:42 10° E visible
21 Oct - 16:36:30 10° WSW 16:44:16 77° S 16:49:04 10° E daylight
21 Oct - 19:04:11 10° W 19:09:09 78° S 19:13:36 10° ESE daylight
21 Oct - 21:29:58 10° W 21:33:41 25° SSW 21:38:19 10° SSE daylight
22 Oct - 12:55:00 10° SSW 13:06:40 28° SSE 13:13:43 10° E visible
22 Oct - 15:23:20 10° WSW 15:33:16 61° SSE 15:38:47 10° E daylight
22 Oct - 17:52:21 10° W 17:58:30 89° S 18:02:56 10° E daylight
22 Oct - 20:18:52 10° W 20:23:03 40° SSW 20:27:37 10° SE daylight
23 Oct - 11:43:05 10° SSW 11:54:16 21° SSE 12:01:48 10° ESE visible
23 Oct - 14:09:49 10° SW 14:21:54 48° SSE 14:28:25 10° E visible
23 Oct - 16:39:39 10° W 16:47:41 85° S 16:52:32 10° E daylight
23 Oct - 19:07:33 10° W 19:12:33 65° SSW 19:16:55 10° ESE daylight
23 Oct - 21:34:09 10° WSW 21:37:01 16° SSW 21:40:19 10° SSE daylight
24 Oct - 10:33:15 10° S 10:41:18 14° SSE 10:47:40 10° ESE visible
24 Oct - 12:56:20 10° SW 13:10:04 37° SSE 13:17:43 10° E visible
24 Oct - 15:26:12 10° WSW 15:36:38 73° SSE 15:42:17 10° E daylight
24 Oct - 17:55:39 10° W 18:01:55 85° S 18:06:22 10° E daylight
24 Oct - 20:22:29 10° W 20:26:21 28° SSW 20:30:26 10° SE daylight
25 Oct - 11:43:22 10° SSW 11:57:39 29° SSE 12:06:23 10° E visible
25 Oct - 14:12:11 10° WSW 14:25:15 60° SSE 14:31:58 10° E visible
25 Oct - 16:42:51 10° W 16:51:05 89° S 16:56:01 10° E daylight
25 Oct - 19:10:57 10° W 19:15:53 50° SSW 19:20:08 10° SE daylight
26 Oct - 10:31:38 10° S 10:44:43 21° SSE 10:53:48 10° ESE visible
26 Oct - 12:58:04 10° SW 13:13:23 48° SSE 13:21:27 10° E visible
26 Oct - 15:29:10 10° WSW 15:40:00 82° S 15:45:45 10° E daylight
26 Oct - 17:58:55 10° W 18:05:19 75° SSW 18:09:47 10° ESE daylight
26 Oct - 20:26:23 10° WSW 20:29:36 19° SSW 20:32:53 10° SSE daylight
